Location: Berlin
(42.3812°N, 71.6370°W)
Time: 22:08:20
(UTC+00:00)

COSMOS 2406 - Pass Details

Date: 15 November 2025
Orbit: 845 x 859 km, 71.0° (Epoch: 12 December)

Event Time Altitude Azimuth Distance (km) Brightness Sun altitude
Rises 00:02:07 0° 337° (NNW) 3,414 6.7 -29.0°
Reaches altitude 10° 00:04:35 10° 340° (NNW) 2,476 5.8 -29.5°
Enters shadow 00:07:53 36° 350° (N) 1,325 4.2 -30.1°
